Meteo Giornale » Osservazioni meteo Italia » Ronchi Dei Legionari

ore: 09:20 - Osservazioni Meteo Ronchi Dei Legionari
Lat. 45° 49' N Lon. 13° 29' E Alt. 12 metri s.l.m.

sereno Europe/Rome

10 °C

Sereno

Temp. 24 Ore

4 °C

12 °C

Nord/Nord-Est

7.4 Km/h

Dew point 6 °C

Umidità 76 %

Visibilità  10 Km

Il sole sorge alle ore 07:03

Il sole tramonta alle ore 16:37

Data e Ora Cielo e Fenomeni T °C DP °C Um. % Pres. hPa Vis. km Vento km/h
Oggi h: 09:20 sereno Sereno 10 6 76 1009 10 N/NE 7.4
Oggi h: 08:50 sereno Sereno 9 6 81 1009 10 N 5.5
Oggi h: 08:20 sereno Sereno 8 6 87 1009 10 N 3.7
Oggi h: 07:50 sereno Sereno 6 5 93 1009 10 N 5.5
Oggi h: 07:20 sereno Sereno 6 5 93 1009 10 N 7.4
Oggi h: 06:50 sereno Sereno 5 5 100 1009 10 N 5.5
Oggi h: 06:20 sereno Sereno 6 5 93 1008 10 N 5.5
Oggi h: 05:50 nuvoloso Nuvoloso 6 5 93 1008 10 N 9.3
Oggi h: 05:20 poco_nuvoloso Poco Nuvoloso 6 5 93 1008 10 N 7.4
Oggi h: 04:50 nuvoloso Nuvoloso 4 4 100 1008 10 N 3.7
Oggi h: 04:20 molto_nuvoloso Molto Nuvoloso 5 5 100 1008 10 N 3.7
Oggi h: 03:50 poco_nuvoloso Poco Nuvoloso 6 6 100 1008 10 N 5.5
Oggi h: 03:20 sereno Sereno 5 4 93 1008 10 N 3.7
Oggi h: 02:50 sereno Sereno 6 6 100 1008 10 N 3.7
Oggi h: 02:20 sereno Sereno 7 6 93 1008 10 N/NE 7.4
Oggi h: 01:50 sereno Sereno 7 6 93 1008 10 N 5.5
Oggi h: 01:20 molto_nuvoloso Molto Nuvoloso 7 6 93 1008 10 N 5.5
Oggi h: 00:50 molto_nuvoloso Molto Nuvoloso 8 7 93 1007 10 E 7.4
Oggi h: 00:20 poco_nuvoloso Poco Nuvoloso 7 7 100 1007 10 N 5.5
Ieri h: 23:50 nebbia Nebbia a Strati 7 7 100 1007 9 NE 7.4
Ieri h: 23:20 nebbia Nebbia a Strati 7 7 100 1007 10 N 5.5
Ieri h: 22:50 nebbia Nebbia a Strati 8 8 100 1006 10 N 3.7
Ieri h: 22:20 nuvoloso Nuvoloso 8 8 100 1006 10 N 3.7
Ieri h: 21:50 nuvoloso Nuvoloso 8 8 100 1006 10 N 3.7
Ieri h: 21:20 nuvoloso Nuvoloso 8 8 100 1005 10 N 3.7
Ieri h: 20:50 poco_nuvoloso Poco Nuvoloso 8 8 100 1005 10 N 3.7
Ieri h: 20:20 nuvoloso Nuvoloso 9 8 93 1004 10 N 3.7
Ieri h: 19:50 molto_nuvoloso Molto Nuvoloso 9 8 93 1004 10 N 5.5
Ieri h: 19:20 molto_nuvoloso Molto Nuvoloso 9 8 93 1003 10 N 1.8
Ieri h: 18:50 molto_nuvoloso Molto Nuvoloso 9 8 93 1003 10 N 3.7
Ieri h: 18:20 molto_nuvoloso Molto Nuvoloso 9 8 93 1002 10 O 7.4
Ieri h: 17:50 molto_nuvoloso Molto Nuvoloso 9 9 100 1002 10 N 5.5
Ieri h: 17:20 molto_nuvoloso Molto Nuvoloso 10 9 93 1001 10 N 3.7
Ieri h: 16:50 molto_nuvoloso Molto Nuvoloso 10 9 93 1000 10 O/NO 7.4
Ieri h: 16:20 molto_nuvoloso Molto Nuvoloso 11 10 93 999 10 O/SO 14.8
Ieri h: 15:50 molto_nuvoloso Molto Nuvoloso 12 11 93 998 10 SO 14.8
Ieri h: 15:20 molto_nuvoloso Molto Nuvoloso 12 11 93 998 10 S/SO 7.4
Ieri h: 14:50 molto_nuvoloso Molto Nuvoloso 12 11 93 997 10 N 5.5
Ieri h: 14:20 molto_nuvoloso Molto Nuvoloso 12 11 93 997 10 N 5.5
Ieri h: 13:50 molto_nuvoloso Molto Nuvoloso 12 11 93 996 10 N 7.4
Ieri h: 13:20 coperto_pioggia Pioggia Debole 12 11 93 996 8 N 5.5
Ieri h: 12:50 coperto_pioggia Pioggia Debole 12 11 93 996 6 N/NE 7.4
Ieri h: 12:20 coperto_pioggia Pioggia Debole 12 11 93 995 7 N 3.7
Ieri h: 11:50 coperto_pioggia Pioggia Debole 12 11 93 995 9 N 3.7
Ieri h: 11:20 coperto_pioggia Pioggia Debole 12 11 93 995 8 N 3.7
Ieri h: 10:50 coperto_pioggia Pioggia Debole 12 10 87 995 9 N 3.7
Ieri h: 10:20 molto_nuvoloso Molto Nuvoloso 12 10 87 995 10 N 7.4
Ieri h: 09:50 molto_nuvoloso Molto Nuvoloso 12 10 87 994 10 N 3.7
Ieri h: 09:20 molto_nuvoloso Molto Nuvoloso 12 10 87 994 10 NE 11.1
Ieri h: 08:50 coperto_pioggia Pioggia Debole 12 10 87 994 9 NE 11.1